Year,Month,Day,Hour,Minute,Value (Times are PST for temperature in C)
2018,04,25,00,00,15.60
2018,04,25,00,01,15.60
2018,04,25,00,02,15.70
2018,04,25,00,03,15.70
2018,04,25,00,04,15.70
2018,04,25,00,05,15.80
2018,04,25,00,06,15.80
2018,04,25,00,07,15.80
2018,04,25,00,08,15.90
2018,04,25,00,09,16.00
2018,04,25,00,10,16.00
2018,04,25,00,11,16.10
2018,04,25,00,12,16.10
2018,04,25,00,13,16.10
2018,04,25,00,14,16.20
2018,04,25,00,15,16.20
2018,04,25,00,16,16.20
2018,04,25,00,17,16.10
2018,04,25,00,18,16.10
2018,04,25,00,19,16.00
2018,04,25,00,20,16.00
2018,04,25,00,21,16.00
2018,04,25,00,22,15.90
2018,04,25,00,23,15.90
2018,04,25,00,24,15.90
2018,04,25,00,25,15.80
2018,04,25,00,26,15.80
2018,04,25,00,27,15.80
2018,04,25,00,28,15.80
2018,04,25,00,29,15.70
2018,04,25,00,30,15.60
2018,04,25,00,31,15.60
2018,04,25,00,32,15.50
2018,04,25,00,33,15.40
2018,04,25,00,34,15.40
2018,04,25,00,35,15.40
2018,04,25,00,36,15.40
2018,04,25,00,37,15.30
2018,04,25,00,38,15.30
2018,04,25,00,39,15.30
2018,04,25,00,40,15.30
2018,04,25,00,41,15.30
2018,04,25,00,42,15.30
2018,04,25,00,43,15.30
2018,04,25,00,44,15.30
2018,04,25,00,45,15.30
2018,04,25,00,46,15.30
2018,04,25,00,47,15.30
2018,04,25,00,48,15.20
2018,04,25,00,49,15.20
2018,04,25,00,50,15.10
2018,04,25,00,51,15.10
2018,04,25,00,52,15.10
2018,04,25,00,53,15.10
2018,04,25,00,54,15.10
2018,04,25,00,55,15.10
2018,04,25,00,56,15.10
2018,04,25,00,57,15.10
2018,04,25,00,58,15.10
2018,04,25,00,59,15.10
2018,04,25,01,00,15.00
2018,04,25,01,01,15.00
2018,04,25,01,02,15.00
2018,04,25,01,03,15.00
2018,04,25,01,04,15.00
2018,04,25,01,05,15.00
2018,04,25,01,06,15.00
2018,04,25,01,07,15.00
2018,04,25,01,08,15.00
2018,04,25,01,09,14.90
2018,04,25,01,10,14.90
2018,04,25,01,11,14.90
2018,04,25,01,12,14.90
2018,04,25,01,13,14.90
2018,04,25,01,14,14.90
2018,04,25,01,15,14.90
2018,04,25,01,16,14.90
2018,04,25,01,17,14.90
2018,04,25,01,18,14.90
2018,04,25,01,19,14.90
2018,04,25,01,20,14.80
2018,04,25,01,21,14.80
2018,04,25,01,22,14.80
2018,04,25,01,23,14.80
2018,04,25,01,24,14.80
2018,04,25,01,25,14.80
2018,04,25,01,26,14.80
2018,04,25,01,27,14.80
2018,04,25,01,28,14.80
2018,04,25,01,29,14.80
2018,04,25,01,30,14.70
2018,04,25,01,31,14.70
2018,04,25,01,32,14.70
2018,04,25,01,33,14.70
2018,04,25,01,34,14.70
2018,04,25,01,35,14.70
2018,04,25,01,36,14.70
2018,04,25,01,37,14.60
2018,04,25,01,38,14.60
2018,04,25,01,39,14.60
2018,04,25,01,40,14.50
2018,04,25,01,41,14.50
2018,04,25,01,42,14.40
2018,04,25,01,43,14.40
2018,04,25,01,44,14.40
2018,04,25,01,45,14.40
2018,04,25,01,46,14.30
2018,04,25,01,47,14.30
2018,04,25,01,48,14.30
2018,04,25,01,49,14.30
2018,04,25,01,50,14.30
2018,04,25,01,51,14.30
2018,04,25,01,52,14.30
2018,04,25,01,53,14.30
2018,04,25,01,54,14.20
2018,04,25,01,55,14.20
2018,04,25,01,56,14.20
2018,04,25,01,57,14.20
2018,04,25,01,58,14.10
2018,04,25,01,59,14.10
2018,04,25,02,00,14.10
2018,04,25,02,01,14.10
2018,04,25,02,02,14.10
2018,04,25,02,03,14.10
2018,04,25,02,04,14.10
2018,04,25,02,05,14.10
2018,04,25,02,06,14.10
2018,04,25,02,07,14.10
2018,04,25,02,08,14.10
2018,04,25,02,09,14.10
2018,04,25,02,10,14.10
2018,04,25,02,11,14.10
2018,04,25,02,12,14.20
2018,04,25,02,13,14.20
2018,04,25,02,14,14.20
2018,04,25,02,15,14.20
2018,04,25,02,16,14.10
2018,04,25,02,17,14.10
2018,04,25,02,18,14.10
2018,04,25,02,19,14.10
2018,04,25,02,20,14.10
2018,04,25,02,21,14.10
2018,04,25,02,22,14.00
2018,04,25,02,23,14.00
2018,04,25,02,24,14.00
2018,04,25,02,25,14.00
2018,04,25,02,26,14.00
2018,04,25,02,27,14.00
2018,04,25,02,28,14.00
2018,04,25,02,29,14.00
2018,04,25,02,30,13.90
2018,04,25,02,31,13.90
2018,04,25,02,32,13.90
2018,04,25,02,33,13.90
2018,04,25,02,34,13.80
2018,04,25,02,35,13.80
2018,04,25,02,36,13.80
2018,04,25,02,37,13.70
2018,04,25,02,38,13.70
2018,04,25,02,39,13.70
2018,04,25,02,40,13.70
2018,04,25,02,41,13.70
2018,04,25,02,42,13.60
2018,04,25,02,43,13.60
2018,04,25,02,44,13.60
2018,04,25,02,45,13.60
2018,04,25,02,46,13.60
2018,04,25,02,47,13.60
2018,04,25,02,48,13.60
2018,04,25,02,49,13.60
2018,04,25,02,50,13.60
2018,04,25,02,51,13.60
2018,04,25,02,52,13.60
2018,04,25,02,53,13.60
2018,04,25,02,54,13.60
2018,04,25,02,55,13.60
2018,04,25,02,56,13.60
2018,04,25,02,57,13.50
2018,04,25,02,58,13.50
2018,04,25,02,59,13.50
2018,04,25,03,00,13.50
2018,04,25,03,01,13.50
2018,04,25,03,02,13.50
2018,04,25,03,03,13.50
2018,04,25,03,04,13.50
2018,04,25,03,05,13.40
2018,04,25,03,06,13.40
2018,04,25,03,07,13.40
2018,04,25,03,08,13.40
2018,04,25,03,09,13.30
2018,04,25,03,10,13.30
2018,04,25,03,11,13.30
2018,04,25,03,12,13.20
2018,04,25,03,13,13.20
2018,04,25,03,14,13.20
2018,04,25,03,15,13.10
2018,04,25,03,16,13.10
2018,04,25,03,17,13.00
2018,04,25,03,18,13.00
2018,04,25,03,19,13.00
2018,04,25,03,20,12.90
2018,04,25,03,21,12.90
2018,04,25,03,22,12.90
2018,04,25,03,23,12.80
2018,04,25,03,24,12.80
2018,04,25,03,25,12.80
2018,04,25,03,26,12.90
2018,04,25,03,27,12.90
2018,04,25,03,28,12.90
2018,04,25,03,29,12.90
2018,04,25,03,30,13.00
2018,04,25,03,31,13.00
2018,04,25,03,32,13.00
2018,04,25,03,33,13.10
2018,04,25,03,34,13.10
2018,04,25,03,35,13.10
2018,04,25,03,36,13.10
2018,04,25,03,37,13.10
2018,04,25,03,38,13.10
2018,04,25,03,39,13.20
2018,04,25,03,40,13.20
2018,04,25,03,41,13.20
2018,04,25,03,42,13.20
2018,04,25,03,43,13.30
2018,04,25,03,44,13.30
2018,04,25,03,45,13.20
2018,04,25,03,46,13.20
2018,04,25,03,47,13.20
2018,04,25,03,48,13.10
2018,04,25,03,49,13.10
2018,04,25,03,50,13.00
2018,04,25,03,51,13.00
2018,04,25,03,52,12.90
2018,04,25,03,53,12.90
2018,04,25,03,54,12.80
2018,04,25,03,55,12.80
2018,04,25,03,56,12.70
2018,04,25,03,57,12.70
2018,04,25,03,58,12.60
2018,04,25,03,59,12.50
2018,04,25,04,00,12.50
2018,04,25,04,01,12.40
2018,04,25,04,02,12.30
2018,04,25,04,03,12.30
2018,04,25,04,04,12.30
2018,04,25,04,05,12.30
2018,04,25,04,06,12.20
2018,04,25,04,07,12.20
2018,04,25,04,08,12.20
2018,04,25,04,09,12.20
2018,04,25,04,10,12.20
2018,04,25,04,11,12.20
2018,04,25,04,12,12.20
2018,04,25,04,13,12.20
2018,04,25,04,14,12.20
2018,04,25,04,15,12.20
2018,04,25,04,16,12.20
2018,04,25,04,17,12.20
2018,04,25,04,18,12.20
2018,04,25,04,19,12.20
2018,04,25,04,20,12.20
2018,04,25,04,21,12.20
2018,04,25,04,22,12.20
2018,04,25,04,23,12.20
2018,04,25,04,24,12.20
2018,04,25,04,25,12.20
2018,04,25,04,26,12.20
2018,04,25,04,27,12.20
2018,04,25,04,28,12.30
2018,04,25,04,29,12.30
2018,04,25,04,30,12.40
2018,04,25,04,31,12.40
2018,04,25,04,32,12.40
2018,04,25,04,33,12.40
2018,04,25,04,34,12.40
2018,04,25,04,35,12.40
2018,04,25,04,36,12.40
2018,04,25,04,37,12.40
2018,04,25,04,38,12.40
2018,04,25,04,39,12.50
2018,04,25,04,40,12.50
2018,04,25,04,41,12.50
2018,04,25,04,42,12.50
2018,04,25,04,43,12.60
2018,04,25,04,44,12.60
2018,04,25,04,45,12.60
2018,04,25,04,46,12.60
2018,04,25,04,47,12.60
2018,04,25,04,48,12.60
2018,04,25,04,49,12.60
2018,04,25,04,50,12.60
2018,04,25,04,51,12.60
2018,04,25,04,52,12.60
2018,04,25,04,53,12.60
2018,04,25,04,54,12.60
2018,04,25,04,55,12.60
2018,04,25,04,56,12.50
2018,04,25,04,57,12.50
2018,04,25,04,58,12.50
2018,04,25,04,59,12.40
2018,04,25,05,00,12.40
2018,04,25,05,01,12.30
2018,04,25,05,02,12.30
2018,04,25,05,03,12.30
2018,04,25,05,04,12.30
2018,04,25,05,05,12.30
2018,04,25,05,06,12.30
2018,04,25,05,07,12.20
2018,04,25,05,08,12.20
2018,04,25,05,09,12.10
2018,04,25,05,10,12.10
2018,04,25,05,11,12.10
2018,04,25,05,12,12.00
2018,04,25,05,13,12.00
2018,04,25,05,14,12.00
2018,04,25,05,15,12.00
2018,04,25,05,16,11.90
2018,04,25,05,17,11.90
2018,04,25,05,18,11.90
2018,04,25,05,19,11.90
2018,04,25,05,20,11.90
2018,04,25,05,21,11.80
2018,04,25,05,22,11.80
2018,04,25,05,23,11.80
2018,04,25,05,24,11.80
2018,04,25,05,25,11.80
2018,04,25,05,26,11.80
2018,04,25,05,27,11.80
2018,04,25,05,28,11.80
2018,04,25,05,29,11.80
2018,04,25,05,30,11.80
2018,04,25,05,31,11.80
2018,04,25,05,32,11.80
2018,04,25,05,33,11.80
2018,04,25,05,34,11.80
2018,04,25,05,35,11.80
2018,04,25,05,36,11.80
2018,04,25,05,37,11.70
2018,04,25,05,38,11.70
2018,04,25,05,39,11.70
2018,04,25,05,40,11.70
2018,04,25,05,41,11.70
2018,04,25,05,42,11.70
2018,04,25,05,43,11.70
2018,04,25,05,44,11.70
2018,04,25,05,45,11.60
2018,04,25,05,46,11.60
2018,04,25,05,47,11.60
2018,04,25,05,48,11.60
2018,04,25,05,49,11.50
2018,04,25,05,50,11.50
2018,04,25,05,51,11.50
2018,04,25,05,52,11.50
2018,04,25,05,53,11.50
2018,04,25,05,54,11.50
2018,04,25,05,55,11.50
2018,04,25,05,56,11.40
2018,04,25,05,57,11.40
2018,04,25,05,58,11.40
2018,04,25,05,59,11.40
2018,04,25,06,00,11.40
2018,04,25,06,01,11.40
2018,04,25,06,02,11.40
2018,04,25,06,03,11.30
2018,04,25,06,04,11.30
2018,04,25,06,05,11.30
2018,04,25,06,06,11.20
2018,04,25,06,07,11.20
2018,04,25,06,08,11.20
2018,04,25,06,09,11.20
2018,04,25,06,10,11.10
2018,04,25,06,11,11.10
2018,04,25,06,12,11.10
2018,04,25,06,13,11.10
2018,04,25,06,14,11.10
2018,04,25,06,15,11.10
2018,04,25,06,16,11.10
2018,04,25,06,17,11.10
2018,04,25,06,18,11.10
2018,04,25,06,19,11.10
2018,04,25,06,20,11.10
2018,04,25,06,21,11.10
2018,04,25,06,22,11.20
2018,04,25,06,23,11.20
2018,04,25,06,24,11.30
2018,04,25,06,25,11.30
2018,04,25,06,26,11.40
2018,04,25,06,27,11.40
2018,04,25,06,28,11.40
2018,04,25,06,29,11.40
2018,04,25,06,30,11.40
2018,04,25,06,31,11.40
2018,04,25,06,32,11.30
2018,04,25,06,33,11.30
2018,04,25,06,34,11.30
2018,04,25,06,35,11.30
2018,04,25,06,36,11.30
2018,04,25,06,37,11.30
2018,04,25,06,38,11.30
2018,04,25,06,39,11.30
2018,04,25,06,40,11.30
2018,04,25,06,41,11.20
2018,04,25,06,42,11.20
2018,04,25,06,43,11.20
2018,04,25,06,44,11.20
2018,04,25,06,45,11.20
2018,04,25,06,46,11.30
2018,04,25,06,47,11.30
2018,04,25,06,48,11.30
2018,04,25,06,49,11.30
2018,04,25,06,50,11.30
2018,04,25,06,51,11.30
2018,04,25,06,52,11.30
2018,04,25,06,53,11.30
2018,04,25,06,54,11.30
2018,04,25,06,55,11.30
2018,04,25,06,56,11.30
2018,04,25,06,57,11.30
2018,04,25,06,58,11.30
2018,04,25,06,59,11.40
2018,04,25,07,00,11.40
2018,04,25,07,01,11.40
2018,04,25,07,02,11.40
2018,04,25,07,03,11.50
2018,04,25,07,04,11.50
2018,04,25,07,05,11.50
2018,04,25,07,06,11.60
2018,04,25,07,07,11.60
2018,04,25,07,08,11.60
2018,04,25,07,09,11.60
2018,04,25,07,10,11.60
2018,04,25,07,11,11.70
2018,04,25,07,12,11.70
2018,04,25,07,13,11.70
2018,04,25,07,14,11.70
2018,04,25,07,15,11.70
2018,04,25,07,16,11.70
2018,04,25,07,17,11.70
2018,04,25,07,18,11.70
2018,04,25,07,19,11.70
2018,04,25,07,20,11.70
2018,04,25,07,21,11.70
2018,04,25,07,22,11.70
2018,04,25,07,23,11.70
2018,04,25,07,24,11.70
2018,04,25,07,25,11.80
2018,04,25,07,26,11.80
2018,04,25,07,27,11.80
2018,04,25,07,28,11.80
2018,04,25,07,29,11.80
2018,04,25,07,30,11.80
2018,04,25,07,31,11.80
2018,04,25,07,32,11.80
2018,04,25,07,33,11.80
2018,04,25,07,34,11.80
2018,04,25,07,35,11.80
2018,04,25,07,36,11.80
2018,04,25,07,37,11.80
2018,04,25,07,38,11.80
2018,04,25,07,39,11.80
2018,04,25,07,40,11.80
2018,04,25,07,41,11.90
2018,04,25,07,42,11.90
2018,04,25,07,43,11.90
2018,04,25,07,44,11.90
2018,04,25,07,45,12.00
2018,04,25,07,46,12.00
2018,04,25,07,47,12.00
2018,04,25,07,48,12.00
2018,04,25,07,49,12.10
2018,04,25,07,50,12.10
2018,04,25,07,51,12.10
2018,04,25,07,52,12.10
2018,04,25,07,53,12.10
2018,04,25,07,54,12.10
2018,04,25,07,55,12.10
2018,04,25,07,56,12.10
2018,04,25,07,57,12.10
2018,04,25,07,58,12.10
2018,04,25,07,59,12.10
2018,04,25,08,00,12.00
2018,04,25,08,01,12.10
2018,04,25,08,02,12.10
2018,04,25,08,03,12.10
2018,04,25,08,04,12.10
2018,04,25,08,05,12.10
2018,04,25,08,06,12.10
2018,04,25,08,07,12.10
2018,04,25,08,08,12.20
2018,04,25,08,09,12.20
2018,04,25,08,10,12.20
2018,04,25,08,11,12.20
2018,04,25,08,12,12.20
2018,04,25,08,13,12.30
2018,04,25,08,14,12.30
2018,04,25,08,15,12.30
2018,04,25,08,16,12.40
2018,04,25,08,17,12.40
2018,04,25,08,18,12.40
2018,04,25,08,19,12.40
2018,04,25,08,20,12.50
2018,04,25,08,21,12.50
2018,04,25,08,22,12.50
2018,04,25,08,23,12.60
2018,04,25,08,24,12.60
2018,04,25,08,25,12.60
2018,04,25,08,26,12.70
2018,04,25,08,27,12.70
2018,04,25,08,28,12.70
2018,04,25,08,29,12.70
2018,04,25,08,30,12.80
2018,04,25,08,31,12.80
2018,04,25,08,32,12.80
2018,04,25,08,33,12.80
2018,04,25,08,34,12.80
2018,04,25,08,35,12.90
2018,04,25,08,36,12.90
2018,04,25,08,37,12.90
2018,04,25,08,38,12.90
2018,04,25,08,39,12.90
2018,04,25,08,40,12.90
2018,04,25,08,41,12.90
2018,04,25,08,42,12.90
2018,04,25,08,43,13.00
2018,04,25,08,44,13.00
2018,04,25,08,45,13.00
2018,04,25,08,46,13.10
2018,04,25,08,47,13.10
2018,04,25,08,48,13.10
2018,04,25,08,49,13.10
2018,04,25,08,50,13.10
2018,04,25,08,51,13.20
2018,04,25,08,52,13.20
2018,04,25,08,53,13.20
2018,04,25,08,54,13.20
2018,04,25,08,55,13.30
2018,04,25,08,56,13.30
2018,04,25,08,57,13.30
2018,04,25,08,58,13.40
2018,04,25,08,59,13.40
2018,04,25,09,00,13.50
2018,04,25,09,01,13.50
2018,04,25,09,02,13.60
2018,04,25,09,03,13.60
2018,04,25,09,04,13.70
2018,04,25,09,05,13.70
2018,04,25,09,06,13.80
2018,04,25,09,07,13.80
2018,04,25,09,08,13.90
2018,04,25,09,09,13.90
2018,04,25,09,10,13.90
2018,04,25,09,11,14.00
2018,04,25,09,12,14.00
2018,04,25,09,13,14.10
2018,04,25,09,14,14.10
2018,04,25,09,15,14.20
2018,04,25,09,16,14.30
2018,04,25,09,17,14.30
2018,04,25,09,18,14.30
2018,04,25,09,19,14.40
2018,04,25,09,20,14.40
2018,04,25,09,21,14.40
2018,04,25,09,22,14.50
2018,04,25,09,23,14.50
2018,04,25,09,24,14.50
2018,04,25,09,25,14.50
2018,04,25,09,26,14.60
2018,04,25,09,27,14.60
2018,04,25,09,28,14.60
2018,04,25,09,29,14.60
2018,04,25,09,30,14.60
2018,04,25,09,31,14.60
2018,04,25,09,32,14.70
2018,04,25,09,33,14.70
2018,04,25,09,34,14.70
2018,04,25,09,35,14.80
2018,04,25,09,36,14.80
2018,04,25,09,37,14.80
2018,04,25,09,38,14.80
2018,04,25,09,39,14.80
2018,04,25,09,40,14.90
2018,04,25,09,41,14.90
2018,04,25,09,42,14.90
2018,04,25,09,43,15.00
2018,04,25,09,44,15.00
2018,04,25,09,45,14.90
2018,04,25,09,46,14.90
2018,04,25,09,47,14.80
2018,04,25,09,48,14.80
2018,04,25,09,49,14.80
2018,04,25,09,50,14.70
2018,04,25,09,51,14.60
2018,04,25,09,52,14.50
2018,04,25,09,53,14.40
2018,04,25,09,54,14.30
2018,04,25,09,55,14.30
2018,04,25,09,56,14.20
2018,04,25,09,57,14.10
2018,04,25,09,58,14.00
2018,04,25,09,59,13.90
2018,04,25,10,00,13.80
2018,04,25,10,01,13.80
2018,04,25,10,02,13.80
2018,04,25,10,03,13.80
2018,04,25,10,04,13.80
2018,04,25,10,05,13.80
2018,04,25,10,06,13.80
2018,04,25,10,07,13.80
2018,04,25,10,08,13.70
2018,04,25,10,09,13.70
2018,04,25,10,10,13.70
2018,04,25,10,11,13.70
2018,04,25,10,12,13.70
2018,04,25,10,13,13.70
2018,04,25,10,14,13.70
2018,04,25,10,15,13.70
2018,04,25,10,16,13.60
2018,04,25,10,17,13.60
2018,04,25,10,18,13.60
2018,04,25,10,19,13.60
2018,04,25,10,20,13.60
2018,04,25,10,21,13.60
2018,04,25,10,22,13.70
2018,04,25,10,23,13.70
2018,04,25,10,24,13.80
2018,04,25,10,25,13.80
2018,04,25,10,26,13.80
2018,04,25,10,27,13.90
2018,04,25,10,28,13.80
2018,04,25,10,29,13.80
2018,04,25,10,30,13.80
2018,04,25,10,31,13.80
2018,04,25,10,32,13.70
2018,04,25,10,33,13.70
2018,04,25,10,34,13.70
2018,04,25,10,35,13.70
2018,04,25,10,36,13.70
2018,04,25,10,37,13.70
2018,04,25,10,38,13.70
2018,04,25,10,39,13.70
2018,04,25,10,40,13.70
2018,04,25,10,41,13.80
2018,04,25,10,42,13.80
2018,04,25,10,43,13.90
2018,04,25,10,44,14.00
2018,04,25,10,45,14.00
2018,04,25,10,46,14.10
2018,04,25,10,47,14.20
2018,04,25,10,48,14.20
2018,04,25,10,49,14.20
2018,04,25,10,50,14.20
2018,04,25,10,51,14.10
2018,04,25,10,52,14.10
2018,04,25,10,53,14.00
2018,04,25,10,54,14.00
2018,04,25,10,55,14.00
2018,04,25,10,56,14.00
2018,04,25,10,57,13.90
2018,04,25,10,58,13.90
2018,04,25,10,59,14.00
2018,04,25,11,00,13.90
2018,04,25,11,01,13.90
2018,04,25,11,02,14.00
2018,04,25,11,03,14.10
2018,04,25,11,04,14.10
2018,04,25,11,05,14.10
2018,04,25,11,06,14.10
2018,04,25,11,07,14.10
2018,04,25,11,08,14.20
2018,04,25,11,09,14.20
2018,04,25,11,10,14.30
2018,04,25,11,11,14.30
2018,04,25,11,12,14.30
2018,04,25,11,13,14.30
2018,04,25,11,14,14.40
2018,04,25,11,15,14.40
2018,04,25,11,16,14.50
2018,04,25,11,17,14.50
2018,04,25,11,18,14.50
2018,04,25,11,19,14.50
2018,04,25,11,20,14.60
2018,04,25,11,21,14.60
2018,04,25,11,22,14.70
2018,04,25,11,23,14.80
2018,04,25,11,24,14.80
2018,04,25,11,25,14.90
2018,04,25,11,26,15.00
2018,04,25,11,27,15.00
2018,04,25,11,28,15.10
2018,04,25,11,29,15.10
2018,04,25,11,30,15.10
2018,04,25,11,31,15.10
2018,04,25,11,32,15.10
2018,04,25,11,33,15.10
2018,04,25,11,34,15.00
2018,04,25,11,35,15.00
2018,04,25,11,36,14.90
2018,04,25,11,37,14.90
2018,04,25,11,38,14.90
2018,04,25,11,39,14.80
2018,04,25,11,40,14.80
2018,04,25,11,41,14.80
2018,04,25,11,42,14.70
2018,04,25,11,43,14.70
2018,04,25,11,44,14.70
2018,04,25,11,45,14.70
2018,04,25,11,46,14.80
2018,04,25,11,47,14.80
2018,04,25,11,48,14.80
2018,04,25,11,49,14.80
2018,04,25,11,50,14.70
2018,04,25,11,51,14.70
2018,04,25,11,52,14.70
2018,04,25,11,53,14.70
2018,04,25,11,54,14.70
2018,04,25,11,55,14.80
2018,04,25,11,56,14.90
2018,04,25,11,57,14.90
2018,04,25,11,58,14.90
2018,04,25,11,59,15.00
2018,04,25,12,00,15.10
2018,04,25,12,01,15.20
2018,04,25,12,02,15.30
2018,04,25,12,03,15.40
2018,04,25,12,04,15.50
2018,04,25,12,05,15.60
2018,04,25,12,06,15.70
2018,04,25,12,07,15.70
2018,04,25,12,08,15.70
2018,04,25,12,09,15.70
2018,04,25,12,10,15.70
2018,04,25,12,11,15.70
2018,04,25,12,12,15.70
2018,04,25,12,13,15.70
2018,04,25,12,14,15.70
2018,04,25,12,15,15.70
2018,04,25,12,16,15.70
2018,04,25,12,17,15.80
2018,04,25,12,18,15.80
2018,04,25,12,19,15.80
2018,04,25,12,20,15.80
2018,04,25,12,21,15.80
2018,04,25,12,22,15.80
2018,04,25,12,23,15.90
2018,04,25,12,24,16.00
2018,04,25,12,25,16.10
2018,04,25,12,26,16.10
2018,04,25,12,27,16.20
2018,04,25,12,28,16.20
2018,04,25,12,29,16.20
2018,04,25,12,30,16.20
2018,04,25,12,31,16.20
2018,04,25,12,32,16.30
2018,04,25,12,33,16.30
2018,04,25,12,34,16.20
2018,04,25,12,35,16.10
2018,04,25,12,36,16.10
2018,04,25,12,37,16.10
2018,04,25,12,38,16.10
2018,04,25,12,39,16.10
2018,04,25,12,40,16.10
2018,04,25,12,41,16.10
2018,04,25,12,42,16.00
2018,04,25,12,43,15.90
2018,04,25,12,44,15.70
2018,04,25,12,45,15.60
2018,04,25,12,46,15.50
2018,04,25,12,47,15.50
2018,04,25,12,48,15.40
2018,04,25,12,49,15.30
2018,04,25,12,50,15.30
2018,04,25,12,51,15.30
2018,04,25,12,52,15.30
2018,04,25,12,53,15.30
2018,04,25,12,54,15.50
2018,04,25,12,55,15.60
2018,04,25,12,56,15.60
2018,04,25,12,57,15.60
2018,04,25,12,58,15.70
2018,04,25,12,59,15.70
2018,04,25,13,00,15.70
2018,04,25,13,01,15.80
2018,04,25,13,02,15.80
2018,04,25,13,03,15.90
2018,04,25,13,04,15.90
2018,04,25,13,05,15.90
2018,04,25,13,06,15.90
2018,04,25,13,07,15.90
2018,04,25,13,08,16.00
2018,04,25,13,09,16.00
2018,04,25,13,10,16.10
2018,04,25,13,11,16.10
2018,04,25,13,12,16.10
2018,04,25,13,13,16.10
2018,04,25,13,14,16.20
2018,04,25,13,15,16.20
2018,04,25,13,16,16.30
2018,04,25,13,17,16.30
2018,04,25,13,18,16.30
2018,04,25,13,19,16.30
2018,04,25,13,20,16.40
2018,04,25,13,21,16.50
2018,04,25,13,22,16.60
2018,04,25,13,23,16.60
2018,04,25,13,24,16.60
2018,04,25,13,25,16.60
2018,04,25,13,26,16.60
2018,04,25,13,27,16.60
2018,04,25,13,28,16.60
2018,04,25,13,29,16.60
2018,04,25,13,30,16.70
2018,04,25,13,31,16.70
2018,04,25,13,32,16.80
2018,04,25,13,33,16.90
2018,04,25,13,34,16.90
2018,04,25,13,35,16.90
2018,04,25,13,36,16.90
2018,04,25,13,37,17.00
2018,04,25,13,38,17.10
2018,04,25,13,39,17.20
2018,04,25,13,40,17.20
2018,04,25,13,41,17.20
2018,04,25,13,42,17.20
2018,04,25,13,43,17.20
2018,04,25,13,44,17.20
2018,04,25,13,45,17.20
2018,04,25,13,46,17.30
2018,04,25,13,47,17.30
2018,04,25,13,48,17.40
2018,04,25,13,49,17.40
2018,04,25,13,50,17.40
2018,04,25,13,51,17.40
2018,04,25,13,52,17.50
2018,04,25,13,53,17.50
2018,04,25,13,54,17.60
2018,04,25,13,55,17.60
2018,04,25,13,56,17.70
2018,04,25,13,57,17.70
2018,04,25,13,58,17.70
2018,04,25,13,59,17.80
2018,04,25,14,00,17.80
2018,04,25,14,01,17.90
2018,04,25,14,02,17.90
2018,04,25,14,03,18.00
2018,04,25,14,04,18.00
2018,04,25,14,05,18.10
2018,04,25,14,06,18.20
2018,04,25,14,07,18.20
2018,04,25,14,08,18.20
2018,04,25,14,09,18.20
2018,04,25,14,10,18.20
2018,04,25,14,11,18.20
2018,04,25,14,12,18.20
2018,04,25,14,13,18.20
2018,04,25,14,14,18.20
2018,04,25,14,15,18.20
2018,04,25,14,16,18.20
2018,04,25,14,17,18.30
2018,04,25,14,18,18.20
2018,04,25,14,19,18.30
2018,04,25,14,20,18.30
2018,04,25,14,21,18.30
2018,04,25,14,22,18.40
2018,04,25,14,23,18.40
2018,04,25,14,24,18.40
2018,04,25,14,25,18.30
2018,04,25,14,26,18.30
2018,04,25,14,27,18.30
2018,04,25,14,28,18.30
2018,04,25,14,29,18.30
2018,04,25,14,30,18.30
2018,04,25,14,31,18.30
2018,04,25,14,32,18.30
2018,04,25,14,33,18.30
2018,04,25,14,34,18.30
2018,04,25,14,35,18.40
2018,04,25,14,36,18.40
2018,04,25,14,37,18.50
2018,04,25,14,38,18.50
2018,04,25,14,39,18.60
2018,04,25,14,40,18.60
2018,04,25,14,41,18.70
2018,04,25,14,42,18.80
2018,04,25,14,43,18.80
2018,04,25,14,44,18.90
2018,04,25,14,45,19.00
2018,04,25,14,46,19.00
2018,04,25,14,47,19.10
2018,04,25,14,48,19.10
2018,04,25,14,49,19.20
2018,04,25,14,50,19.20
2018,04,25,14,51,19.30
2018,04,25,14,52,19.30
2018,04,25,14,53,19.30
2018,04,25,14,54,19.30
2018,04,25,14,55,19.30
2018,04,25,14,56,19.40
2018,04,25,14,57,19.40
2018,04,25,14,58,19.50
2018,04,25,14,59,19.60
2018,04,25,15,00,19.70
2018,04,25,15,01,19.70
2018,04,25,15,02,19.70
2018,04,25,15,03,19.70
2018,04,25,15,04,19.70
2018,04,25,15,05,19.70
2018,04,25,15,06,19.70
2018,04,25,15,07,19.80
2018,04,25,15,08,19.80
2018,04,25,15,09,19.80
2018,04,25,15,10,19.80
2018,04,25,15,11,19.80
2018,04,25,15,12,19.80
2018,04,25,15,13,19.80
2018,04,25,15,14,19.90
2018,04,25,15,15,19.90
2018,04,25,15,16,20.00
2018,04,25,15,17,20.00
2018,04,25,15,18,20.10
2018,04,25,15,19,20.10
2018,04,25,15,20,20.10
2018,04,25,15,21,20.10
2018,04,25,15,22,20.20
2018,04,25,15,23,20.30
2018,04,25,15,24,20.30
2018,04,25,15,25,20.40
2018,04,25,15,26,20.40
2018,04,25,15,27,20.50
2018,04,25,15,28,20.50
2018,04,25,15,29,20.50
2018,04,25,15,30,20.50
2018,04,25,15,31,20.50
2018,04,25,15,32,20.60
2018,04,25,15,33,20.60
2018,04,25,15,34,20.70
2018,04,25,15,35,20.70
2018,04,25,15,36,20.70
2018,04,25,15,37,20.70
2018,04,25,15,38,20.80
2018,04,25,15,39,20.80
2018,04,25,15,40,20.80
2018,04,25,15,41,20.90
2018,04,25,15,42,21.00
2018,04,25,15,43,21.00
2018,04,25,15,44,21.10
2018,04,25,15,45,21.20
2018,04,25,15,46,21.20
2018,04,25,15,47,21.20
2018,04,25,15,48,21.20
2018,04,25,15,49,21.20
2018,04,25,15,50,21.20
2018,04,25,15,51,21.20
2018,04,25,15,52,21.20
2018,04,25,15,53,21.20
2018,04,25,15,54,21.20
2018,04,25,15,55,21.20
2018,04,25,15,56,21.20
2018,04,25,15,57,21.30
2018,04,25,15,58,21.30
2018,04,25,15,59,21.30
2018,04,25,16,00,21.40
2018,04,25,16,01,21.40
2018,04,25,16,02,21.50
2018,04,25,16,03,21.60
2018,04,25,16,04,21.70
2018,04,25,16,05,21.80
2018,04,25,16,06,21.90
2018,04,25,16,07,22.00
2018,04,25,16,08,22.00
2018,04,25,16,09,22.10
2018,04,25,16,10,22.10
2018,04,25,16,11,22.10
2018,04,25,16,12,22.20
2018,04,25,16,13,22.20
2018,04,25,16,14,22.30
2018,04,25,16,15,22.30
2018,04,25,16,16,22.30
2018,04,25,16,17,22.30
2018,04,25,16,18,22.30
2018,04,25,16,19,22.30
2018,04,25,16,20,22.20
2018,04,25,16,21,22.10
2018,04,25,16,22,22.10
2018,04,25,16,23,22.00
2018,04,25,16,24,21.90
2018,04,25,16,25,21.90
2018,04,25,16,26,21.90
2018,04,25,16,27,21.80
2018,04,25,16,28,21.90
2018,04,25,16,29,21.90
2018,04,25,16,30,21.90
2018,04,25,16,31,22.00
2018,04,25,16,32,22.10
2018,04,25,16,33,22.20
2018,04,25,16,34,22.20
2018,04,25,16,35,22.20
2018,04,25,16,36,22.30
2018,04,25,16,37,22.30
2018,04,25,16,38,22.40
2018,04,25,16,39,22.40
2018,04,25,16,40,22.50
2018,04,25,16,41,22.50
2018,04,25,16,42,22.40
2018,04,25,16,43,22.30
2018,04,25,16,44,22.30
2018,04,25,16,45,22.20
2018,04,25,16,46,22.20
2018,04,25,16,47,22.10
2018,04,25,16,48,22.00
2018,04,25,16,49,21.90
2018,04,25,16,50,21.90
2018,04,25,16,51,21.80
2018,04,25,16,52,21.80
2018,04,25,16,53,21.80
2018,04,25,16,54,21.80
2018,04,25,16,55,21.80
2018,04,25,16,56,21.80
2018,04,25,16,57,21.80
2018,04,25,16,58,21.80
2018,04,25,16,59,21.90
2018,04,25,17,00,22.00
2018,04,25,17,01,22.10
2018,04,25,17,02,22.20
2018,04,25,17,03,22.30
2018,04,25,17,04,22.40
2018,04,25,17,05,22.50
2018,04,25,17,06,22.60
2018,04,25,17,07,22.70
2018,04,25,17,08,22.80
2018,04,25,17,09,22.80
2018,04,25,17,10,22.80
2018,04,25,17,11,22.80
2018,04,25,17,12,22.80
2018,04,25,17,13,22.70
2018,04,25,17,14,22.60
2018,04,25,17,15,22.60
2018,04,25,17,16,22.60
2018,04,25,17,17,22.60
2018,04,25,17,18,22.60
2018,04,25,17,19,22.60